Meteo Giornale » Osservazioni meteo Italia » Brescia-Ghedi

ore: 03:55 - Osservazioni Meteo Brescia-Ghedi
Lat. 45° 25' N Lon. 10° 17' E Alt. 102 metri s.l.m.

foschia Europe/Rome

4 °C

Foschia

Temp. 24 Ore

0 °C

6 °C

Nord

5.5 Km/h

Dew point 3 °C

Umidità 93 %

Visibilità  2 Km

Il sole sorge alle ore 07:43

Il sole tramonta alle ore 16:37

Data e Ora Cielo e Fenomeni T °C DP °C Um. % Pres. hPa Vis. km Vento km/h
Oggi h: 03:55 foschia Foschia 4 3 93 1019 2 N 5.5
Oggi h: 02:55 foschia Foschia 4 3 93 1019 3 N 5.5
Oggi h: 01:55 foschia Foschia 5 4 93 1020 3 N 5.5
Oggi h: 00:55 foschia Foschia 5 4 93 1020 3 O 7.4
Ieri h: 23:55 foschia Foschia 4 3 93 1021 3 N 5.5
Ieri h: 22:55 foschia Foschia 4 3 93 1021 3 O 9.3
Ieri h: 21:55 foschia Foschia 5 3 86 1021 4 N 5.5
Ieri h: 20:55 foschia Foschia 5 4 93 1022 5 N 5.5
Ieri h: 19:55 foschia Foschia 5 3 86 1022 5 N 3.7
Ieri h: 18:55 foschia Foschia 5 4 93 1022 5 N 5.5
Ieri h: 17:55 foschia Foschia 6 3 81 1022 5 N 3.7
Ieri h: 16:55 foschia Foschia 6 3 81 1022 5 N 3.7
Ieri h: 15:55 foschia Foschia 6 3 81 1022 5 N 5.5
Ieri h: 14:55 molto_nuvoloso Molto Nuvoloso 6 3 81 1022 6 N 5.5
Ieri h: 13:55 molto_nuvoloso Molto Nuvoloso 6 3 81 1023 6 N 5.5
Ieri h: 12:55 foschia Foschia 5 3 86 1024 5 O 7.4
Ieri h: 11:55 foschia Foschia 4 2 86 1024 5 O/SO 7.4
Ieri h: 10:55 foschia Foschia 3 2 93 1025 5 N 3.7
Ieri h: 09:55 foschia Foschia 2 1 93 1025 4 N 1.8
Ieri h: 09:14 foschia Foschia 1 -1 86 1025 3 N 1.8
Ieri h: 08:55 molto_nuvoloso Molto Nuvoloso 1 -1 86 1025 7 N 1.8
Ieri h: 07:55 foschia Foschia 0 -1 92 1025 5 N 3.7
Ieri h: 06:55 foschia Foschia -0 -2 86 1025 4 N 1.8
Ieri h: 05:55 foschia Foschia -0 -1 92 1025 5 N 1.8
Ieri h: 04:55 foschia Foschia -0 -1 92 1025 5 N 1.8